Time,TemperatureF,DewpointF,PressureIn,WindDirection,WindDirectionDegrees,WindSpeedMPH,WindSpeedGustMPH,Humidity,HourlyPrecipIn,Conditions,Clouds,dailyrainin,SoftwareType,DateUTC
2013-01-16 00:00:00,40.0,29.6,29.93,West,270,11.0,11.0,66,0.00,,,0.00,VWS V14.01,2013-01-16 07:00:00,
2013-01-16 00:05:00,40.0,29.6,29.93,WNW,292,11.0,12.0,66,0.00,,,0.00,VWS V14.01,2013-01-16 07:05:00,
2013-01-16 00:10:00,41.0,29.8,29.93,WNW,292,12.0,15.0,64,0.00,,,0.00,VWS V14.01,2013-01-16 07:10:00,
2013-01-16 00:15:00,41.0,30.1,29.93,WNW,292,15.0,16.0,65,0.00,,,0.00,VWS V14.01,2013-01-16 07:15:00,
2013-01-16 00:20:00,41.0,30.1,29.93,WNW,292,17.0,20.0,65,0.00,,,0.00,VWS V14.01,2013-01-16 07:20:00,
2013-01-16 00:25:00,41.0,30.1,29.93,WNW,292,11.0,15.0,65,0.00,,,0.00,VWS V14.01,2013-01-16 07:25:00,
2013-01-16 00:30:00,41.0,30.1,29.93,WNW,292,14.0,22.0,65,0.00,,,0.00,VWS V14.01,2013-01-16 07:30:00,
2013-01-16 00:35:00,41.0,29.8,29.93,WNW,292,19.0,21.0,64,0.00,,,0.00,VWS V14.01,2013-01-16 07:35:00,
2013-01-16 00:40:00,41.0,29.4,29.92,WNW,292,21.0,22.0,63,0.00,,,0.00,VWS V14.01,2013-01-16 07:40:00,
2013-01-16 00:45:00,41.0,29.8,29.92,West,270,12.0,18.0,64,0.00,,,0.00,VWS V14.01,2013-01-16 07:45:00,
2013-01-16 00:50:00,41.0,29.8,29.92,WNW,292,13.0,18.0,64,0.00,,,0.00,VWS V14.01,2013-01-16 07:50:00,
2013-01-16 00:55:00,41.0,29.8,29.92,WNW,292,13.0,18.0,64,0.00,,,0.00,VWS V14.01,2013-01-16 07:55:00,
2013-01-16 01:00:00,41.0,29.8,29.93,WNW,292,15.0,18.0,64,0.00,,,0.00,VWS V14.01,2013-01-16 08:00:00,
2013-01-16 01:05:00,41.0,29.8,29.93,WNW,292,15.0,16.0,64,0.00,,,0.00,VWS V14.01,2013-01-16 08:05:00,
2013-01-16 01:10:00,40.0,29.2,29.93,West,270,13.0,16.0,65,0.00,,,0.00,VWS V14.01,2013-01-16 08:10:00,
2013-01-16 01:15:00,40.0,29.2,29.93,West,270,12.0,13.0,65,0.00,,,0.00,VWS V14.01,2013-01-16 08:15:00,
2013-01-16 01:20:00,40.0,29.6,29.93,WNW,292,12.0,13.0,66,0.00,,,0.00,VWS V14.01,2013-01-16 08:20:00,
2013-01-16 01:25:00,40.0,29.2,29.93,WNW,292,11.0,12.0,65,0.00,,,0.00,VWS V14.01,2013-01-16 08:25:00,
2013-01-16 01:30:00,40.0,29.2,29.93,WNW,292,8.0,10.0,65,0.00,,,0.00,VWS V14.01,2013-01-16 08:30:00,
2013-01-16 01:35:00,39.0,29.0,29.93,West,270,0.0,6.0,67,0.00,,,0.00,VWS V14.01,2013-01-16 08:35:00,
2013-01-16 01:40:00,38.0,29.5,29.95,WSW,247,4.0,7.0,71,0.00,,,0.00,VWS V14.01,2013-01-16 08:40:00,
2013-01-16 01:45:00,37.0,29.2,29.95,SW,225,9.0,10.0,73,0.00,,,0.00,VWS V14.01,2013-01-16 08:45:00,
2013-01-16 01:50:00,36.0,29.5,29.97,SW,225,6.0,7.0,77,0.00,,,0.00,VWS V14.01,2013-01-16 08:50:00,
2013-01-16 01:55:00,34.0,29.1,29.97,SW,225,6.0,6.0,82,0.00,,,0.00,VWS V14.01,2013-01-16 08:55:00,
2013-01-16 02:00:00,35.0,29.2,29.99,SW,225,10.0,10.0,79,0.00,,,0.00,VWS V14.01,2013-01-16 09:00:00,
2013-01-16 02:05:00,35.0,29.2,29.99,SW,225,9.0,9.0,79,0.00,,,0.00,VWS V14.01,2013-01-16 09:05:00,
2013-01-16 02:10:00,33.0,28.1,29.99,SW,225,7.0,8.0,82,0.00,,,0.00,VWS V14.01,2013-01-16 09:10:00,
2013-01-16 02:15:00,35.0,28.2,29.99,SW,225,7.0,9.0,76,0.00,,,0.00,VWS V14.01,2013-01-16 09:15:00,
2013-01-16 02:20:00,35.0,28.5,29.99,SW,225,4.0,6.0,77,0.00,,,0.00,VWS V14.01,2013-01-16 09:20:00,
2013-01-16 02:25:00,35.0,28.5,29.99,SW,225,5.0,6.0,77,0.00,,,0.00,VWS V14.01,2013-01-16 09:25:00,
2013-01-16 02:30:00,34.0,27.6,29.99,SW,225,5.0,5.0,77,0.00,,,0.00,VWS V14.01,2013-01-16 09:30:00,
2013-01-16 02:35:00,35.0,28.5,29.99,SW,225,6.0,7.0,77,0.00,,,0.00,VWS V14.01,2013-01-16 09:35:00,
2013-01-16 02:40:00,35.0,28.2,29.99,SW,225,1.0,2.0,76,0.00,,,0.00,VWS V14.01,2013-01-16 09:40:00,
2013-01-16 02:45:00,37.0,28.1,29.99,WSW,247,4.0,4.0,70,0.00,,,0.00,VWS V14.01,2013-01-16 09:45:00,
2013-01-16 02:50:00,39.0,27.1,29.98,West,270,2.0,11.0,62,0.00,,,0.00,VWS V14.01,2013-01-16 09:50:00,
2013-01-16 02:55:00,39.0,26.7,29.98,WNW,292,10.0,12.0,61,0.00,,,0.00,VWS V14.01,2013-01-16 09:55:00,
2013-01-16 03:00:00,40.0,27.2,29.97,WNW,292,7.0,12.0,60,0.00,,,0.00,VWS V14.01,2013-01-16 10:00:00,
2013-01-16 03:05:00,39.0,26.3,29.97,West,270,7.0,12.0,60,0.00,,,0.00,VWS V14.01,2013-01-16 10:05:00,
2013-01-16 03:10:00,40.0,26.8,29.97,West,270,6.0,10.0,59,0.00,,,0.00,VWS V14.01,2013-01-16 10:10:00,
2013-01-16 03:15:00,38.0,25.8,29.97,NW,315,0.0,6.0,61,0.00,,,0.00,VWS V14.01,2013-01-16 10:15:00,
2013-01-16 03:21:00,38.0,25.8,29.97,SW,225,3.0,3.0,61,0.00,,,0.00,VWS V14.01,2013-01-16 10:21:00,
2013-01-16 03:26:00,37.0,26.0,29.97,WSW,247,1.0,3.0,64,0.00,,,0.00,VWS V14.01,2013-01-16 10:26:00,
2013-01-16 03:31:00,37.0,26.0,29.98,SW,225,0.0,3.0,64,0.00,,,0.00,VWS V14.01,2013-01-16 10:31:00,
2013-01-16 03:36:00,37.0,25.6,29.98,WNW,292,0.0,2.0,63,0.00,,,0.00,VWS V14.01,2013-01-16 10:36:00,
2013-01-16 03:41:00,37.0,25.6,29.99,WSW,247,0.0,1.0,63,0.00,,,0.00,VWS V14.01,2013-01-16 10:41:00,
2013-01-16 03:46:00,37.0,25.6,29.99,WNW,292,0.0,2.0,63,0.00,,,0.00,VWS V14.01,2013-01-16 10:46:00,
2013-01-16 03:51:00,37.0,26.0,29.99,WNW,292,0.0,0.0,64,0.00,,,0.00,VWS V14.01,2013-01-16 10:51:00,
2013-01-16 03:56:00,36.0,25.0,29.99,NE,45,0.0,0.0,64,0.00,,,0.00,VWS V14.01,2013-01-16 10:56:00,
2013-01-16 04:01:00,37.0,24.8,29.99,ESE,112,0.0,0.0,61,0.00,,,0.00,VWS V14.01,2013-01-16 11:01:00,
2013-01-16 04:06:00,37.0,25.6,29.99,SE,135,3.0,4.0,63,0.00,,,0.00,VWS V14.01,2013-01-16 11:06:00,
2013-01-16 04:11:00,37.0,25.2,29.98,SE,135,1.0,2.0,62,0.00,,,0.00,VWS V14.01,2013-01-16 11:11:00,
2013-01-16 04:16:00,36.0,24.6,29.98,SSE,157,0.0,0.0,63,0.00,,,0.00,VWS V14.01,2013-01-16 11:16:00,
2013-01-16 04:21:00,36.0,25.0,29.98,SSW,202,1.0,3.0,64,0.00,,,0.00,VWS V14.01,2013-01-16 11:21:00,
2013-01-16 04:26:00,36.0,25.8,29.98,South,180,5.0,6.0,66,0.00,,,0.00,VWS V14.01,2013-01-16 11:26:00,
2013-01-16 04:31:00,35.0,24.8,29.98,South,180,6.0,10.0,66,0.00,,,0.00,VWS V14.01,2013-01-16 11:31:00,
2013-01-16 04:36:00,35.0,24.8,29.98,South,180,7.0,11.0,66,0.00,,,0.00,VWS V14.01,2013-01-16 11:36:00,
2013-01-16 04:41:00,35.0,25.2,29.98,SSE,157,7.0,9.0,67,0.00,,,0.00,VWS V14.01,2013-01-16 11:41:00,
2013-01-16 04:46:00,34.0,24.6,29.98,SSE,157,6.0,9.0,68,0.00,,,0.00,VWS V14.01,2013-01-16 11:46:00,
2013-01-16 04:51:00,34.0,25.6,29.99,SSW,202,2.0,5.0,71,0.00,,,0.00,VWS V14.01,2013-01-16 11:51:00,
2013-01-16 04:56:00,33.0,24.6,29.99,SE,135,1.0,2.0,71,0.00,,,0.00,VWS V14.01,2013-01-16 11:56:00,
2013-01-16 05:01:00,33.0,24.3,30.00,SE,135,5.0,5.0,70,0.00,,,0.00,VWS V14.01,2013-01-16 12:01:00,
2013-01-16 05:06:00,33.0,25.0,30.00,ESE,112,5.0,5.0,72,0.00,,,0.00,VWS V14.01,2013-01-16 12:06:00,
2013-01-16 05:11:00,32.0,25.3,30.00,SE,135,1.0,4.0,76,0.00,,,0.00,VWS V14.01,2013-01-16 12:11:00,
2013-01-16 05:16:00,33.0,25.3,30.00,SE,135,0.0,4.0,73,0.00,,,0.00,VWS V14.01,2013-01-16 12:16:00,
2013-01-16 05:21:00,33.0,25.0,30.00,SE,135,0.0,3.0,72,0.00,,,0.00,VWS V14.01,2013-01-16 12:21:00,
2013-01-16 05:26:00,33.0,25.0,30.00,South,180,5.0,7.0,72,0.00,,,0.00,VWS V14.01,2013-01-16 12:26:00,
2013-01-16 05:31:00,34.0,25.6,30.00,SSE,157,6.0,8.0,71,0.00,,,0.00,VWS V14.01,2013-01-16 12:31:00,
2013-01-16 05:36:00,34.0,25.6,30.00,South,180,0.0,6.0,71,0.00,,,0.00,VWS V14.01,2013-01-16 12:36:00,
2013-01-16 05:41:00,34.0,25.6,30.00,South,180,1.0,4.0,71,0.00,,,0.00,VWS V14.01,2013-01-16 12:41:00,
2013-01-16 05:46:00,34.0,24.9,30.00,SSE,157,1.0,1.0,69,0.00,,,0.00,VWS V14.01,2013-01-16 12:46:00,
2013-01-16 05:51:00,34.0,24.2,29.99,SSE,157,1.0,4.0,67,0.00,,,0.00,VWS V14.01,2013-01-16 12:51:00,
2013-01-16 05:56:00,35.0,25.2,29.99,South,180,1.0,2.0,67,0.00,,,0.00,VWS V14.01,2013-01-16 12:56:00,
2013-01-16 06:01:00,35.0,24.4,29.99,WSW,247,1.0,1.0,65,0.00,,,0.00,VWS V14.01,2013-01-16 13:01:00,
2013-01-16 06:06:00,35.0,23.7,29.99,West,270,0.0,0.0,63,0.00,,,0.00,VWS V14.01,2013-01-16 13:06:00,
2013-01-16 06:11:00,36.0,23.1,29.99,NNE,22,3.0,6.0,59,0.00,,,0.00,VWS V14.01,2013-01-16 13:11:00,
2013-01-16 06:16:00,37.0,23.2,29.99,North,360,0.0,4.0,57,0.00,,,0.00,VWS V14.01,2013-01-16 13:16:00,
2013-01-16 06:22:00,37.0,23.2,29.99,NE,45,0.0,0.0,57,0.00,,,0.00,VWS V14.01,2013-01-16 13:22:00,
2013-01-16 06:27:00,38.0,23.3,29.99,North,360,0.0,8.0,55,0.00,,,0.00,VWS V14.01,2013-01-16 13:27:00,
2013-01-16 06:32:00,38.0,24.1,29.98,North,360,0.0,0.0,57,0.00,,,0.00,VWS V14.01,2013-01-16 13:32:00,
2013-01-16 06:37:00,38.0,23.7,29.98,NW,315,0.0,2.0,56,0.00,,,0.00,VWS V14.01,2013-01-16 13:37:00,
2013-01-16 06:42:00,37.0,23.2,29.98,West,270,0.0,0.0,57,0.00,,,0.00,VWS V14.01,2013-01-16 13:42:00,
2013-01-16 06:47:00,39.0,22.4,29.98,WNW,292,9.0,9.0,51,0.00,,,0.00,VWS V14.01,2013-01-16 13:47:00,
2013-01-16 06:52:00,40.0,23.4,29.97,NW,315,6.0,9.0,51,0.00,,,0.00,VWS V14.01,2013-01-16 13:52:00,
2013-01-16 06:57:00,40.0,22.4,29.97,WNW,292,7.0,10.0,49,0.00,,,0.00,VWS V14.01,2013-01-16 13:57:00,
2013-01-16 07:02:00,40.0,23.8,29.98,West,270,6.0,11.0,52,0.00,,,0.00,VWS V14.01,2013-01-16 14:02:00,
2013-01-16 07:07:00,40.0,22.4,29.98,WNW,292,6.0,12.0,49,0.00,,,0.00,VWS V14.01,2013-01-16 14:07:00,
2013-01-16 07:12:00,41.0,22.3,29.98,WNW,292,12.0,13.0,47,0.00,,,0.00,VWS V14.01,2013-01-16 14:12:00,
2013-01-16 07:17:00,41.0,23.3,29.98,WNW,292,8.0,10.0,49,0.00,,,0.00,VWS V14.01,2013-01-16 14:17:00,
2013-01-16 07:22:00,41.0,23.3,29.98,NW,315,7.0,10.0,49,0.00,,,0.00,VWS V14.01,2013-01-16 14:22:00,
2013-01-16 07:27:00,41.0,23.8,29.98,WNW,292,7.0,9.0,50,0.00,,,0.00,VWS V14.01,2013-01-16 14:27:00,
2013-01-16 07:32:00,42.0,22.7,29.98,West,270,12.0,13.0,46,0.00,,,0.00,VWS V14.01,2013-01-16 14:32:00,
2013-01-16 07:37:00,42.0,21.7,29.98,WNW,292,10.0,14.0,44,0.00,,,0.00,VWS V14.01,2013-01-16 14:37:00,
2013-01-16 07:42:00,42.0,22.2,29.97,WNW,292,8.0,15.0,45,0.00,,,0.00,VWS V14.01,2013-01-16 14:42:00,
2013-01-16 07:47:00,42.0,22.2,29.97,West,270,11.0,15.0,45,0.00,,,0.00,VWS V14.01,2013-01-16 14:47:00,
2013-01-16 07:52:00,42.0,22.7,29.97,WNW,292,8.0,9.0,46,0.00,,,0.00,VWS V14.01,2013-01-16 14:52:00,
2013-01-16 07:57:00,42.0,22.7,29.97,West,270,1.0,11.0,46,0.00,,,0.00,VWS V14.01,2013-01-16 14:57:00,
2013-01-16 08:02:00,43.0,21.5,29.98,WNW,292,7.0,18.0,42,0.00,,,0.00,VWS V14.01,2013-01-16 15:02:00,
2013-01-16 08:07:00,42.0,21.7,29.98,West,270,6.0,9.0,44,0.00,,,0.00,VWS V14.01,2013-01-16 15:07:00,
2013-01-16 08:12:00,41.0,22.3,29.99,NW,315,7.0,7.0,47,0.00,,,0.00,VWS V14.01,2013-01-16 15:12:00,
2013-01-16 08:17:00,41.0,21.8,29.99,WNW,292,7.0,9.0,46,0.00,,,0.00,VWS V14.01,2013-01-16 15:17:00,
2013-01-16 08:22:00,40.0,21.4,30.00,NW,315,6.0,10.0,47,0.00,,,0.00,VWS V14.01,2013-01-16 15:22:00,
2013-01-16 08:27:00,41.0,21.8,30.00,NW,315,8.0,10.0,46,0.00,,,0.00,VWS V14.01,2013-01-16 15:27:00,
2013-01-16 08:32:00,40.0,21.4,30.01,NW,315,6.0,6.0,47,0.00,,,0.00,VWS V14.01,2013-01-16 15:32:00,
2013-01-16 08:37:00,40.0,21.4,30.01,WNW,292,2.0,5.0,47,0.00,,,0.00,VWS V14.01,2013-01-16 15:37:00,
2013-01-16 08:42:00,41.0,21.3,30.01,WNW,292,6.0,7.0,45,0.00,,,0.00,VWS V14.01,2013-01-16 15:42:00,
2013-01-16 08:47:00,42.0,21.1,30.01,West,270,12.0,15.0,43,0.00,,,0.00,VWS V14.01,2013-01-16 15:47:00,
2013-01-16 08:52:00,42.0,20.6,30.01,WNW,292,8.0,12.0,42,0.00,,,0.00,VWS V14.01,2013-01-16 15:52:00,
2013-01-16 08:57:00,41.0,21.8,30.01,NW,315,6.0,12.0,46,0.00,,,0.00,VWS V14.01,2013-01-16 15:57:00,
2013-01-16 09:02:00,42.0,21.7,30.01,WNW,292,10.0,16.0,44,0.00,,,0.00,VWS V14.01,2013-01-16 16:02:00,
2013-01-16 09:07:00,42.0,21.7,30.01,WNW,292,10.0,12.0,44,0.00,,,0.00,VWS V14.01,2013-01-16 16:07:00,
2013-01-16 09:12:00,42.0,21.1,30.01,WNW,292,4.0,12.0,43,0.00,,,0.00,VWS V14.01,2013-01-16 16:12:00,
2013-01-16 09:17:00,43.0,22.0,30.01,WNW,292,4.0,12.0,43,0.00,,,0.00,VWS V14.01,2013-01-16 16:17:00,
2013-01-16 09:22:00,43.0,21.5,30.01,WNW,292,8.0,16.0,42,0.00,,,0.00,VWS V14.01,2013-01-16 16:22:00,
2013-01-16 09:27:00,43.0,22.0,30.01,West,270,7.0,13.0,43,0.00,,,0.00,VWS V14.01,2013-01-16 16:27:00,
2013-01-16 09:32:00,43.0,22.6,30.02,WNW,292,7.0,10.0,44,0.00,,,0.00,VWS V14.01,2013-01-16 16:32:00,
2013-01-16 09:37:00,44.0,23.0,30.02,WNW,292,6.0,12.0,43,0.00,,,0.00,VWS V14.01,2013-01-16 16:37:00,
2013-01-16 09:42:00,44.0,23.0,30.02,WNW,292,8.0,13.0,43,0.00,,,0.00,VWS V14.01,2013-01-16 16:42:00,
2013-01-16 09:47:00,44.0,22.4,30.02,WNW,292,8.0,10.0,42,0.00,,,0.00,VWS V14.01,2013-01-16 16:47:00,
2013-01-16 09:53:00,44.0,22.4,30.02,WNW,292,7.0,12.0,42,0.00,,,0.00,VWS V14.01,2013-01-16 16:53:00,
2013-01-16 09:58:00,45.0,23.3,30.02,NW,315,1.0,12.0,42,0.00,,,0.00,VWS V14.01,2013-01-16 16:58:00,
2013-01-16 10:03:00,45.0,22.1,30.01,WNW,292,6.0,8.0,40,0.00,,,0.00,VWS V14.01,2013-01-16 17:03:00,
2013-01-16 10:08:00,45.0,22.7,30.01,WNW,292,1.0,7.0,41,0.00,,,0.00,VWS V14.01,2013-01-16 17:08:00,
2013-01-16 10:13:00,45.0,23.9,30.01,WNW,292,7.0,11.0,43,0.00,,,0.00,VWS V14.01,2013-01-16 17:13:00,
2013-01-16 10:18:00,45.0,23.9,30.01,West,270,5.0,10.0,43,0.00,,,0.00,VWS V14.01,2013-01-16 17:18:00,
2013-01-16 10:23:00,45.0,23.3,30.02,WNW,292,6.0,16.0,42,0.00,,,0.00,VWS V14.01,2013-01-16 17:23:00,
2013-01-16 10:28:00,45.0,23.3,30.02,WNW,292,9.0,13.0,42,0.00,,,0.00,VWS V14.01,2013-01-16 17:28:00,
2013-01-16 10:33:00,45.0,20.9,30.03,WNW,292,9.0,15.0,38,0.00,,,0.00,VWS V14.01,2013-01-16 17:33:00,
2013-01-16 10:38:00,45.0,20.9,30.03,WNW,292,10.0,14.0,38,0.00,,,0.00,VWS V14.01,2013-01-16 17:38:00,
2013-01-16 10:43:00,46.0,21.8,30.02,West,270,16.0,19.0,38,0.00,,,0.00,VWS V14.01,2013-01-16 17:43:00,
2013-01-16 10:48:00,45.0,22.1,30.02,West,270,13.0,20.0,40,0.00,,,0.00,VWS V14.01,2013-01-16 17:48:00,
2013-01-16 10:53:00,45.0,23.3,30.02,West,270,13.0,16.0,42,0.00,,,0.00,VWS V14.01,2013-01-16 17:53:00,
2013-01-16 10:58:00,45.0,23.9,30.02,NW,315,2.0,13.0,43,0.00,,,0.00,VWS V14.01,2013-01-16 17:58:00,
2013-01-16 11:03:00,45.0,22.1,30.02,WNW,292,10.0,15.0,40,0.00,,,0.00,VWS V14.01,2013-01-16 18:03:00,
2013-01-16 11:08:00,46.0,21.8,30.02,WNW,292,9.0,16.0,38,0.00,,,0.00,VWS V14.01,2013-01-16 18:08:00,
2013-01-16 11:13:00,46.0,23.0,30.00,NW,315,9.0,18.0,40,0.00,,,0.00,VWS V14.01,2013-01-16 18:13:00,
2013-01-16 11:18:00,46.0,23.0,30.00,West,270,11.0,13.0,40,0.00,,,0.00,VWS V14.01,2013-01-16 18:18:00,
2013-01-16 11:23:00,45.0,23.3,30.01,WNW,292,9.0,15.0,42,0.00,,,0.00,VWS V14.01,2013-01-16 18:23:00,
2013-01-16 11:28:00,46.0,23.6,30.02,WNW,292,7.0,12.0,41,0.00,,,0.00,VWS V14.01,2013-01-16 18:28:00,
2013-01-16 11:33:00,46.0,23.6,30.02,NW,315,6.0,10.0,41,0.00,,,0.00,VWS V14.01,2013-01-16 18:33:00,
2013-01-16 11:38:00,46.0,24.2,30.02,West,270,9.0,12.0,42,0.00,,,0.00,VWS V14.01,2013-01-16 18:38:00,
2013-01-16 11:43:00,45.0,23.9,30.02,WNW,292,10.0,12.0,43,0.00,,,0.00,VWS V14.01,2013-01-16 18:43:00,
2013-01-16 11:48:00,46.0,23.0,30.02,West,270,10.0,15.0,40,0.00,,,0.00,VWS V14.01,2013-01-16 18:48:00,
2013-01-16 11:53:00,46.0,24.2,30.02,WNW,292,7.0,13.0,42,0.00,,,0.00,VWS V14.01,2013-01-16 18:53:00,
2013-01-16 11:58:00,46.0,23.0,30.03,WNW,292,14.0,16.0,40,0.00,,,0.00,VWS V14.01,2013-01-16 18:58:00,
2013-01-16 12:03:00,46.0,24.2,30.03,WNW,292,11.0,16.0,42,0.00,,,0.00,VWS V14.01,2013-01-16 19:03:00,
2013-01-16 12:15:00,46.0,23.6,30.03,WNW,292,13.0,17.0,41,0.00,,,0.00,VWS V14.01,2013-01-16 19:15:00,
2013-01-16 12:30:00,45.0,25.0,30.03,WNW,292,12.0,13.0,45,0.00,,,0.00,VWS V14.01,2013-01-16 19:30:00,
2013-01-16 12:45:00,46.0,23.0,30.03,WNW,292,7.0,12.0,40,0.00,,,0.00,VWS V14.01,2013-01-16 19:45:00,
2013-01-16 13:00:00,46.0,24.2,30.03,WNW,292,9.0,9.0,42,0.00,,,0.00,VWS V14.01,2013-01-16 20:00:00,
2013-01-16 13:15:00,43.0,24.2,30.03,WSW,247,6.0,9.0,47,0.00,,,0.00,VWS V14.01,2013-01-16 20:15:00,
2013-01-16 13:30:00,44.0,24.6,30.05,WSW,247,11.0,11.0,46,0.00,,,0.00,VWS V14.01,2013-01-16 20:30:00,
2013-01-16 13:45:00,44.0,25.6,30.05,WSW,247,11.0,11.0,48,0.00,,,0.00,VWS V14.01,2013-01-16 20:45:00,
2013-01-16 14:04:00,44.0,24.6,30.07,WSW,247,8.0,11.0,46,0.00,,,0.00,VWS V14.01,2013-01-16 21:04:00,
2013-01-16 14:09:00,45.0,25.0,30.07,WNW,292,6.0,15.0,45,0.00,,,0.00,VWS V14.01,2013-01-16 21:09:00,
2013-01-16 14:14:00,45.0,25.0,30.07,WSW,247,5.0,11.0,45,0.00,,,0.00,VWS V14.01,2013-01-16 21:14:00,
2013-01-16 14:19:00,45.0,25.0,30.07,West,270,1.0,12.0,45,0.00,,,0.00,VWS V14.01,2013-01-16 21:19:00,
2013-01-16 14:24:00,45.0,25.0,30.07,West,270,5.0,11.0,45,0.00,,,0.00,VWS V14.01,2013-01-16 21:24:00,
2013-01-16 14:29:00,44.0,25.1,30.08,West,270,10.0,10.0,47,0.00,,,0.00,VWS V14.01,2013-01-16 21:29:00,
2013-01-16 14:34:00,44.0,24.0,30.08,WSW,247,1.0,12.0,45,0.00,,,0.00,VWS V14.01,2013-01-16 21:34:00,
2013-01-16 14:39:00,44.0,24.0,30.08,West,270,7.0,13.0,45,0.00,,,0.00,VWS V14.01,2013-01-16 21:39:00,
2013-01-16 14:44:00,44.0,25.1,30.08,WNW,292,5.0,13.0,47,0.00,,,0.00,VWS V14.01,2013-01-16 21:44:00,
2013-01-16 14:49:00,44.0,25.1,30.09,West,270,12.0,15.0,47,0.00,,,0.00,VWS V14.01,2013-01-16 21:49:00,
2013-01-16 14:54:00,43.0,26.6,30.09,NW,315,8.0,15.0,52,0.00,,,0.00,VWS V14.01,2013-01-16 21:54:00,
2013-01-16 14:59:00,43.0,25.6,30.09,NW,315,7.0,11.0,50,0.00,,,0.00,VWS V14.01,2013-01-16 21:59:00,
2013-01-16 15:04:00,44.0,24.0,30.09,NW,315,9.0,9.0,45,0.00,,,0.00,VWS V14.01,2013-01-16 22:04:00,
2013-01-16 15:09:00,45.0,25.5,30.08,NW,315,6.0,12.0,46,0.00,,,0.00,VWS V14.01,2013-01-16 22:09:00,
2013-01-16 15:14:00,45.0,23.3,30.08,NW,315,6.0,9.0,42,0.00,,,0.00,VWS V14.01,2013-01-16 22:14:00,
2013-01-16 15:19:00,45.0,23.9,30.08,NW,315,7.0,9.0,43,0.00,,,0.00,VWS V14.01,2013-01-16 22:19:00,
2013-01-16 15:24:00,43.0,25.2,30.08,NW,315,5.0,9.0,49,0.00,,,0.00,VWS V14.01,2013-01-16 22:24:00,
2013-01-16 15:29:00,44.0,25.6,30.09,NW,315,1.0,7.0,48,0.00,,,0.00,VWS V14.01,2013-01-16 22:29:00,
2013-01-16 15:34:00,43.0,25.2,30.09,NW,315,0.0,6.0,49,0.00,,,0.00,VWS V14.01,2013-01-16 22:34:00,
2013-01-16 15:39:00,43.0,24.2,30.10,WNW,292,2.0,5.0,47,0.00,,,0.00,VWS V14.01,2013-01-16 22:39:00,
2013-01-16 15:44:00,44.0,24.0,30.10,West,270,4.0,4.0,45,0.00,,,0.00,VWS V14.01,2013-01-16 22:44:00,
2013-01-16 15:49:00,44.0,25.1,30.10,West,270,1.0,4.0,47,0.00,,,0.00,VWS V14.01,2013-01-16 22:49:00,
2013-01-16 15:54:00,43.0,24.7,30.10,West,270,1.0,1.0,48,0.00,,,0.00,VWS V14.01,2013-01-16 22:54:00,
2013-01-16 15:59:00,43.0,24.2,30.11,West,270,0.0,4.0,47,0.00,,,0.00,VWS V14.01,2013-01-16 22:59:00,
2013-01-16 16:04:00,43.0,24.2,30.11,West,270,2.0,3.0,47,0.00,,,0.00,VWS V14.01,2013-01-16 23:04:00,
2013-01-16 16:09:00,42.0,25.2,30.11,WNW,292,0.0,3.0,51,0.00,,,0.00,VWS V14.01,2013-01-16 23:09:00,
2013-01-16 16:14:00,42.0,24.2,30.11,WNW,292,0.0,1.0,49,0.00,,,0.00,VWS V14.01,2013-01-16 23:14:00,
2013-01-16 16:19:00,41.0,24.7,30.12,West,270,0.0,0.0,52,0.00,,,0.00,VWS V14.01,2013-01-16 23:19:00,
2013-01-16 16:24:00,41.0,24.7,30.12,West,270,1.0,2.0,52,0.00,,,0.00,VWS V14.01,2013-01-16 23:24:00,
2013-01-16 16:29:00,41.0,25.6,30.14,WNW,292,1.0,3.0,54,0.00,,,0.00,VWS V14.01,2013-01-16 23:29:00,
2013-01-16 16:34:00,40.0,24.7,30.14,NW,315,0.0,2.0,54,0.00,,,0.00,VWS V14.01,2013-01-16 23:34:00,
2013-01-16 16:39:00,40.0,24.7,30.14,WSW,247,0.0,3.0,54,0.00,,,0.00,VWS V14.01,2013-01-16 23:39:00,
2013-01-16 16:44:00,40.0,25.6,30.14,West,270,0.0,7.0,56,0.00,,,0.00,VWS V14.01,2013-01-16 23:44:00,
2013-01-16 16:49:00,40.0,23.4,30.14,WNW,292,0.0,6.0,51,0.00,,,0.00,VWS V14.01,2013-01-16 23:49:00,
2013-01-16 16:54:00,41.0,23.8,30.14,WSW,247,7.0,7.0,50,0.00,,,0.00,VWS V14.01,2013-01-16 23:54:00,
2013-01-16 16:59:00,40.0,23.8,30.14,West,270,0.0,7.0,52,0.00,,,0.00,VWS V14.01,2013-01-16 23:59:00,
2013-01-16 17:04:00,39.0,24.6,30.14,West,270,2.0,7.0,56,0.00,,,0.00,VWS V14.01,2013-01-17 00:04:00,
2013-01-16 17:09:00,40.0,24.7,30.15,West,270,1.0,1.0,54,0.00,,,0.00,VWS V14.01,2013-01-17 00:09:00,
2013-01-16 17:14:00,40.0,25.1,30.15,SW,225,2.0,3.0,55,0.00,,,0.00,VWS V14.01,2013-01-17 00:14:00,
2013-01-16 17:19:00,40.0,25.6,30.15,WSW,247,3.0,3.0,56,0.00,,,0.00,VWS V14.01,2013-01-17 00:19:00,
2013-01-16 17:24:00,40.0,24.7,30.15,NW,315,3.0,3.0,54,0.00,,,0.00,VWS V14.01,2013-01-17 00:24:00,
2013-01-16 17:29:00,39.0,25.5,30.17,NW,315,0.0,1.0,58,0.00,,,0.00,VWS V14.01,2013-01-17 00:29:00,
2013-01-16 17:34:00,39.0,24.6,30.17,NW,315,1.0,1.0,56,0.00,,,0.00,VWS V14.01,2013-01-17 00:34:00,
2013-01-16 17:39:00,39.0,24.6,30.18,NW,315,3.0,3.0,56,0.00,,,0.00,VWS V14.01,2013-01-17 00:39:00,
2013-01-16 17:44:00,39.0,25.1,30.18,NW,315,3.0,3.0,57,0.00,,,0.00,VWS V14.01,2013-01-17 00:44:00,
2013-01-16 17:49:00,38.0,25.4,30.18,NW,315,3.0,3.0,60,0.00,,,0.00,VWS V14.01,2013-01-17 00:49:00,
2013-01-16 17:54:00,38.0,25.4,30.18,NW,315,1.0,1.0,60,0.00,,,0.00,VWS V14.01,2013-01-17 00:54:00,
2013-01-16 17:59:00,37.0,26.0,30.20,NW,315,0.0,0.0,64,0.00,,,0.00,VWS V14.01,2013-01-17 00:59:00,
2013-01-16 18:04:00,37.0,25.2,30.20,NW,315,0.0,0.0,62,0.00,,,0.00,VWS V14.01,2013-01-17 01:04:00,
2013-01-16 18:09:00,40.0,22.4,30.19,NW,315,1.0,3.0,49,0.00,,,0.00,VWS V14.01,2013-01-17 01:09:00,
2013-01-16 18:14:00,41.0,22.3,30.19,NW,315,2.0,4.0,47,0.00,,,0.00,VWS V14.01,2013-01-17 01:14:00,
2013-01-16 18:20:00,41.0,22.3,30.18,WNW,292,1.0,2.0,47,0.00,,,0.00,VWS V14.01,2013-01-17 01:20:00,
2013-01-16 18:25:00,42.0,21.7,30.18,WNW,292,1.0,3.0,44,0.00,,,0.00,VWS V14.01,2013-01-17 01:25:00,
2013-01-16 18:30:00,42.0,20.6,30.17,West,270,2.0,4.0,42,0.00,,,0.00,VWS V14.01,2013-01-17 01:30:00,
2013-01-16 18:35:00,43.0,21.5,30.17,WNW,292,1.0,4.0,42,0.00,,,0.00,VWS V14.01,2013-01-17 01:35:00,
2013-01-16 18:40:00,41.0,22.8,30.17,WSW,247,3.0,4.0,48,0.00,,,0.00,VWS V14.01,2013-01-17 01:40:00,
2013-01-16 18:45:00,39.0,23.8,30.17,WSW,247,2.0,2.0,54,0.00,,,0.00,VWS V14.01,2013-01-17 01:45:00,
2013-01-16 18:50:00,38.0,23.3,30.20,SW,225,1.0,6.0,55,0.00,,,0.00,VWS V14.01,2013-01-17 01:50:00,
2013-01-16 18:55:00,38.0,22.9,30.20,WSW,247,3.0,3.0,54,0.00,,,0.00,VWS V14.01,2013-01-17 01:55:00,
2013-01-16 19:00:00,37.0,23.2,30.21,SW,225,2.0,3.0,57,0.00,,,0.00,VWS V14.01,2013-01-17 02:00:00,
2013-01-16 19:05:00,36.0,23.5,30.21,SSW,202,9.0,9.0,60,0.00,,,0.00,VWS V14.01,2013-01-17 02:05:00,
2013-01-16 19:10:00,36.0,22.7,30.21,SW,225,7.0,10.0,58,0.00,,,0.00,VWS V14.01,2013-01-17 02:10:00,
2013-01-16 19:15:00,37.0,22.8,30.21,SW,225,10.0,11.0,56,0.00,,,0.00,VWS V14.01,2013-01-17 02:15:00,
2013-01-16 19:20:00,37.0,22.4,30.20,SW,225,9.0,10.0,55,0.00,,,0.00,VWS V14.01,2013-01-17 02:20:00,
2013-01-16 19:25:00,37.0,22.4,30.20,SW,225,9.0,9.0,55,0.00,,,0.00,VWS V14.01,2013-01-17 02:25:00,
2013-01-16 19:30:00,37.0,22.8,30.21,SW,225,9.0,9.0,56,0.00,,,0.00,VWS V14.01,2013-01-17 02:30:00,
2013-01-16 19:35:00,37.0,22.8,30.21,SW,225,8.0,9.0,56,0.00,,,0.00,VWS V14.01,2013-01-17 02:35:00,
2013-01-16 19:40:00,36.0,23.5,30.22,SW,225,4.0,6.0,60,0.00,,,0.00,VWS V14.01,2013-01-17 02:40:00,
2013-01-16 19:45:00,36.0,23.5,30.22,SW,225,7.0,7.0,60,0.00,,,0.00,VWS V14.01,2013-01-17 02:45:00,
2013-01-16 19:50:00,36.0,23.1,30.22,WSW,247,5.0,6.0,59,0.00,,,0.00,VWS V14.01,2013-01-17 02:50:00,
2013-01-16 19:55:00,36.0,23.5,30.22,WSW,247,6.0,7.0,60,0.00,,,0.00,VWS V14.01,2013-01-17 02:55:00,
2013-01-16 20:00:00,36.0,23.5,30.22,WSW,247,5.0,6.0,60,0.00,,,0.00,VWS V14.01,2013-01-17 03:00:00,
2013-01-16 20:05:00,35.0,22.9,30.22,WSW,247,3.0,5.0,61,0.00,,,0.00,VWS V14.01,2013-01-17 03:05:00,
2013-01-16 20:10:00,35.0,23.3,30.23,WSW,247,2.0,7.0,62,0.00,,,0.00,VWS V14.01,2013-01-17 03:10:00,
2013-01-16 20:15:00,35.0,23.7,30.23,SW,225,7.0,7.0,63,0.00,,,0.00,VWS V14.01,2013-01-17 03:15:00,
2013-01-16 20:20:00,36.0,23.5,30.22,SW,225,7.0,10.0,60,0.00,,,0.00,VWS V14.01,2013-01-17 03:20:00,
2013-01-16 20:25:00,35.0,22.9,30.22,SW,225,9.0,9.0,61,0.00,,,0.00,VWS V14.01,2013-01-17 03:25:00,
2013-01-16 20:30:00,35.0,22.9,30.23,SW,225,10.0,12.0,61,0.00,,,0.00,VWS V14.01,2013-01-17 03:30:00,
2013-01-16 20:35:00,35.0,23.3,30.23,SW,225,9.0,10.0,62,0.00,,,0.00,VWS V14.01,2013-01-17 03:35:00,
2013-01-16 20:40:00,36.0,23.5,30.23,WSW,247,10.0,12.0,60,0.00,,,0.00,VWS V14.01,2013-01-17 03:40:00,
2013-01-16 20:45:00,35.0,23.3,30.23,WSW,247,9.0,12.0,62,0.00,,,0.00,VWS V14.01,2013-01-17 03:45:00,
2013-01-16 20:50:00,35.0,22.9,30.23,SW,225,10.0,12.0,61,0.00,,,0.00,VWS V14.01,2013-01-17 03:50:00,
2013-01-16 20:56:00,35.0,23.3,30.23,WSW,247,11.0,12.0,62,0.00,,,0.00,VWS V14.01,2013-01-17 03:56:00,
2013-01-16 21:01:00,36.0,23.5,30.23,WSW,247,14.0,14.0,60,0.00,,,0.00,VWS V14.01,2013-01-17 04:01:00,
2013-01-16 21:06:00,35.0,22.9,30.23,WSW,247,10.0,11.0,61,0.00,,,0.00,VWS V14.01,2013-01-17 04:06:00,
2013-01-16 21:11:00,36.0,22.7,30.23,WSW,247,11.0,13.0,58,0.00,,,0.00,VWS V14.01,2013-01-17 04:11:00,
2013-01-16 21:16:00,36.0,23.5,30.23,SW,225,6.0,13.0,60,0.00,,,0.00,VWS V14.01,2013-01-17 04:16:00,
2013-01-16 21:21:00,35.0,22.5,30.24,WSW,247,7.0,12.0,60,0.00,,,0.00,VWS V14.01,2013-01-17 04:21:00,
2013-01-16 21:26:00,35.0,22.5,30.24,WSW,247,10.0,11.0,60,0.00,,,0.00,VWS V14.01,2013-01-17 04:26:00,
2013-01-16 21:31:00,34.0,22.0,30.25,WSW,247,9.0,10.0,61,0.00,,,0.00,VWS V14.01,2013-01-17 04:31:00,
2013-01-16 21:36:00,35.0,22.9,30.25,WSW,247,9.0,12.0,61,0.00,,,0.00,VWS V14.01,2013-01-17 04:36:00,
2013-01-16 21:41:00,35.0,22.9,30.25,WSW,247,7.0,12.0,61,0.00,,,0.00,VWS V14.01,2013-01-17 04:41:00,
2013-01-16 21:46:00,35.0,22.9,30.25,SW,225,10.0,10.0,61,0.00,,,0.00,VWS V14.01,2013-01-17 04:46:00,
2013-01-16 21:51:00,35.0,23.3,30.25,WSW,247,11.0,11.0,62,0.00,,,0.00,VWS V14.01,2013-01-17 04:51:00,
2013-01-16 21:56:00,35.0,22.9,30.25,WSW,247,12.0,13.0,61,0.00,,,0.00,VWS V14.01,2013-01-17 04:56:00,
2013-01-16 22:01:00,34.0,22.0,30.25,WSW,247,9.0,13.0,61,0.00,,,0.00,VWS V14.01,2013-01-17 05:01:00,
2013-01-16 22:03:00,34.0,22.0,30.25,WSW,247,12.0,14.0,61,0.00,,,0.00,VWS V14.01,2013-01-17 05:03:00,
2013-01-16 22:08:00,33.0,21.4,30.27,WSW,247,9.0,13.0,62,0.00,,,0.00,VWS V14.01,2013-01-17 05:08:00,
2013-01-16 22:13:00,32.0,22.3,30.27,WSW,247,10.0,11.0,67,0.00,,,0.00,VWS V14.01,2013-01-17 05:13:00,
2013-01-16 22:18:00,31.0,21.7,30.28,WSW,247,8.0,10.0,68,0.00,,,0.00,VWS V14.01,2013-01-17 05:18:00,
2013-01-16 22:23:00,32.0,22.3,30.28,WSW,247,9.0,10.0,67,0.00,,,0.00,VWS V14.01,2013-01-17 05:23:00,
2013-01-16 22:28:00,33.0,22.2,30.27,WSW,247,8.0,12.0,64,0.00,,,0.00,VWS V14.01,2013-01-17 05:28:00,
2013-01-16 22:33:00,33.0,21.4,30.27,WSW,247,9.0,12.0,62,0.00,,,0.00,VWS V14.01,2013-01-17 05:33:00,
2013-01-16 22:38:00,34.0,22.0,30.27,WSW,247,10.0,15.0,61,0.00,,,0.00,VWS V14.01,2013-01-17 05:38:00,
2013-01-16 22:43:00,34.0,22.0,30.27,WSW,247,10.0,12.0,61,0.00,,,0.00,VWS V14.01,2013-01-17 05:43:00,
2013-01-16 22:48:00,35.0,22.5,30.26,WSW,247,12.0,13.0,60,0.00,,,0.00,VWS V14.01,2013-01-17 05:48:00,
2013-01-16 22:53:00,34.0,22.0,30.26,WSW,247,11.0,13.0,61,0.00,,,0.00,VWS V14.01,2013-01-17 05:53:00,
2013-01-16 22:58:00,34.0,21.6,30.27,SW,225,10.0,13.0,60,0.00,,,0.00,VWS V14.01,2013-01-17 05:58:00,
2013-01-16 23:03:00,34.0,21.6,30.27,WNW,292,1.0,12.0,60,0.00,,,0.00,VWS V14.01,2013-01-17 06:03:00,
2013-01-16 23:08:00,33.0,21.0,30.28,SW,225,5.0,13.0,61,0.00,,,0.00,VWS V14.01,2013-01-17 06:08:00,
2013-01-16 23:13:00,33.0,21.4,30.28,WSW,247,7.0,13.0,62,0.00,,,0.00,VWS V14.01,2013-01-17 06:13:00,
2013-01-16 23:18:00,34.0,21.6,30.27,WSW,247,8.0,12.0,60,0.00,,,0.00,VWS V14.01,2013-01-17 06:18:00,
2013-01-16 23:23:00,34.0,21.2,30.27,WSW,247,6.0,10.0,59,0.00,,,0.00,VWS V14.01,2013-01-17 06:23:00,
2013-01-16 23:28:00,34.0,21.6,30.27,WNW,292,5.0,8.0,60,0.00,,,0.00,VWS V14.01,2013-01-17 06:28:00,
2013-01-16 23:33:00,34.0,21.2,30.27,WNW,292,6.0,9.0,59,0.00,,,0.00,VWS V14.01,2013-01-17 06:33:00,
2013-01-16 23:38:00,35.0,21.7,30.27,West,270,4.0,11.0,58,0.00,,,0.00,VWS V14.01,2013-01-17 06:38:00,
2013-01-16 23:43:00,35.0,21.7,30.27,SSW,202,3.0,9.0,58,0.00,,,0.00,VWS V14.01,2013-01-17 06:43:00,
2013-01-16 23:48:00,36.0,21.8,30.27,WSW,247,7.0,12.0,56,0.00,,,0.00,VWS V14.01,2013-01-17 06:48:00,
2013-01-16 23:53:00,36.0,22.3,30.27,WNW,292,9.0,15.0,57,0.00,,,0.00,VWS V14.01,2013-01-17 06:53:00,
2013-01-16 23:58:00,35.0,20.9,30.28,WSW,247,9.0,13.0,56,0.00,,,0.00,VWS V14.01,2013-01-17 06:58:00,